Regional Weather Roundup
Issued by NWS

Home | Current Version | Previous Version | Graphics & Text | Print | Product List | Glossary Off
Versions: 1 2 3 4 5 6 7 8 9 10 11 12 13 14 15 16 17 18 19 20 21 22 23 24 25 26 27 28 29 30 31 32 33 34 35 36 37 38 39 40 41 42 43 44 45 46 47 48 49 50

000
ASUS45 KBOU 231810
RWRCO

WEATHER ROUNDUP FOR COLORADO
NATIONAL WEATHER SERVICE DENVER/BOULDER CO
1200 PM MDT WED MAY 23 2018

NOTE: "FAIR" INDICATES FEW OR NO CLOUDS BELOW 12000 FEET WITH NO
SIGNIFICANT WEATHER AND/OR OBSTRUCTIONS TO VISIBILITY.

COZ001>005-013-030-031-231900-
...NORTHWEST COLORADO...

CITY           SKY/WX    TMP DP  RH WIND       PRES   REMARKS
CRAIG          FAIR      69  44  40 NW9       30.05F
HAYDEN         FAIR      61  46  57 W5        30.08F
MEEKER         FAIR      70  32  24 S20G30    30.05F
RANGELY        FAIR      65  44  44 NW3       30.03S
RABBIT EARS PA CLOUDY    52  27  37 W9G25     30.28S
STEAMBOAT SPGS CLOUDY    62  43  50 S5        30.07S
WALDEN         FAIR      63  21  20 SW18G29   30.15F
$$

COZ006>008-011-231900-
...WEST CENTRAL VALLEYS...

CITY           SKY/WX    TMP DP  RH WIND       PRES   REMARKS
GRAND JUNCTION PTSUNNY   72  41  32 W13G20    30.02S
MONTROSE       FAIR      72  28  19 N13       30.05F
EAGLE          FAIR      72  24  16 SW20G26   30.08F
RIFLE          FAIR      72  36  26 W22       30.02F
DELTA          FAIR      75  32  20 SW3       30.03F
NUCLA          FAIR      72  21  15 SW7G21    30.11F
$$

COZ017>023-064>068-231900-
...SOUTHWEST COLORADO...

CITY           SKY/WX    TMP DP  RH WIND       PRES   REMARKS
DURANGO        FAIR      70  25  18 MISG      30.15F
CORTEZ         FAIR      73  20  13 SW9       30.11S
PAGOSA SPRINGS FAIR      66  13  12 S7G18     30.22S
TELLURIDE      PTSUNNY   58  20  23 S13G21    30.26S
WOLF CREEK PAS PTSUNNY   43  21  42 SW20G30   30.46S
$$

COZ009-010-012-014-032>034-037-058>063-231900-
...CENTRAL COLORADO...

CITY           SKY/WX    TMP DP  RH WIND       PRES   REMARKS
ASPEN          FAIR      67  24  19 S14       30.13R
BUENA VISTA    FAIR      65  30  27 E8        30.17S
COPPER MTN     PTSUNNY   46  18  31 SE23G32   30.38R
BERTHOUD PASS    N/A     37  28  70 SE16G22   30.41S
COTTONWOOD PAS PTSUNNY   61  19  20 W5        30.28S
GUNNISON       FAIR      65  23  20 VRB7G20   30.15F
GRANBY         MOCLDY    58  34  41 N7        30.19R
KREMMLING      FAIR      63  45  51 E7        30.16F
LEADVILLE      PTSUNNY   57  18  21 S18G26    30.25S
MONARCH PASS   CLOUDY    46  16  29 MISG      30.48S
SALIDA         FAIR      71  26  18 SE13G20   30.21F
SUNLIGHT       CLOUDY    50  25  37 S9G24     30.33R
WILKERSON PASS CLOUDY    48  23  37 SW10G16   30.38S
$$

COZ069>075-231900-
...SAN LUIS VALLEY/SANGRE DE CRISTO MOUNTAINS...

CITY           SKY/WX    TMP DP  RH WIND       PRES   REMARKS
ALAMOSA        FAIR      70  23  17 S12       30.16F
DEL NORTE      FAIR      63  36  37 SE7       30.21S
LA VETA PASS   FAIR      59  27  29 S20G40    30.44S
SAGUACHE       NOT AVBL
$$

COZ035-036-038>040-231900-
...NORTHERN COLORADO FRONT RANGE...

CITY           SKY/WX    TMP DP  RH WIND       PRES   REMARKS
DENVER INTL AP FAIR      73  48  41 E5        30.01F
AURORA         PTSUNNY   77  46  32 E3        30.00F
FRONT RANGE AP PTSUNNY   75  48  38 NE7G18    30.02F
ERIE MUNI ARPT FAIR      73  45  37 SE7       30.05F
BOULDER MUN AP FAIR      70  48  46 NW5       30.02F
CENTENNIAL     PTSUNNY   77  41  27 S13       30.01F
BROOMFIELD     PTSUNNY   70  45  40 NE8       30.04S
FORT COLLINS   FAIR      71  53  52 SW8       30.02S
LONGMONT       NOT AVBL
$$

COZ041-046-047-076>085-087-088-231900-
...PIKES PEAK/PALMER DIVIDE AND SOUTHERN FOOTHILLS...

CITY           SKY/WX    TMP DP  RH WIND       PRES   REMARKS
COLO. SPRINGS  FAIR      75  41  29 SE12G28   30.08F
A. F. ACADEMY  FAIR      73  38  28 SE10G18   30.08F
SCHRIEVER AFB  NOT AVBL
CHEYENNE MTN   PTSUNNY   72  30  21 SE25G31   30.05F
ELLICOTT         N/A    N/A N/A N/A SW16G23   30.07F
FALCON         NOT AVBL
FORT CARSON    FAIR      76  38  25 S17       30.04F
LIMON          FAIR      75  48  38 S16G31    30.04F
MONUMENT HILL  FAIR      70  30  23 S17G23    30.12S
CANON CITY     FAIR      75  43  31 SE9       30.03F
WALSENBURG     FAIR      77  39  25 SE13G20   30.08S
TRINIDAD       FAIR      74  49  41 S26G38    30.11S
$$

COZ042>045-048>051-090-091-231900-
...NORTHEAST COLORADO...

CITY           SKY/WX    TMP DP  RH WIND       PRES   REMARKS
GREELEY ARPT   FAIR      72  53  51 SE8       30.00F
AKRON          FAIR      71  54  54 SW12G18   30.00F
BURLINGTON     FAIR      79  52  38 S24G38    30.02F
WRAY           FAIR      81  52  36 SW17G25   29.98F
YUMA           FAIR      73  32  21 S17       29.99F
STERLING       FAIR      73  54  49 SE5       29.97S
HOLYOKE        FAIR      79  52  38 SW16G23   29.97F
FORT MORGAN    FAIR      73  49  41 SE7       30.00F
$$

COZ086-089-092>099-231900-
...SOUTHEAST COLORADO...

CITY           SKY/WX    TMP DP  RH WIND       PRES   REMARKS
PUEBLO         FAIR      82  44  26 SE8       29.99F
LA JUNTA       FAIR      85  47  26 SW26G39   30.00F
LAMAR          FAIR      85  50  29 S24G32    29.99F
SPRINGFIELD      N/A     78  53  41 S21G33    30.07F
$$



USA.gov is the U.S. government's official web portal to all federal, state and local government web resources and services.